Location: Boiro
(42.6475°N, 8.8834°W)
Time: 04:45:34
(UTC+01:00)

Transit 4A - Pass Details

Date: 06 December 2021
Orbit: 864 x 980 km, 66.8° (Epoch: 17 January)

Event Time Altitude Azimuth Distance (km) Brightness Sun altitude
Exits shadow 06:25:08 27° 208° (SSW) 1,768 9.1 -26.1°
Drops below altitude 10° 06:28:26 10° 185° (S) 2,720 10.3 -25.5°
Sets 06:31:11 0° 177° (S) 3,666 11.1 -25.0°
